This demonstration page uses our WeatherBlox Daily Observations layout. Learn more.

41.55636, -103.73856

Hourly Observations for January 26, 2020

Temp ( °F °C ) Dew Point ( °F °C ) Humidity (%) Winds ( mph kmh ) Pressure ( in mb ) Visibility ( mi km ) Precip ( " mm )
12:58 am 00:58 Clear 40 4.2 20 -6.9 45 45 WNW 20 31 30.06 1018 10 16.0934 0 0
1:58 am 01:58 Mostly Cloudy 37 3 21 -6.1 52 52 WNW 12 19 30.08 1019 10 16.0934 0 0
2:58 am 02:58 Mostly Clear 34 1.3 22 -5.8 60 60 WNW 15 24 30.1 1019 10 16.0934 0 0
3:58 am 03:58 Partly Cloudy 31 -0.7 21 -5.9 68 68 W 8 13 30.11 1020 10 16.0934 0 0
4:58 am 04:58 Mostly Cloudy 31 -0.3 22 -5.5 68 68 WSW 6 9 30.1 1019 10 16.0934 0 0
5:58 am 05:58 Mostly Cloudy 32 0 24 -4.7 71 71 WSW 7 11 30.09 1019 10 16.0934 0 0
6:58 am 06:58 Cloudy 37 2.5 25 -3.8 64 64 W 8 13 30.06 1018 10 16.0934 0 0
7:58 am 07:58 Mostly Cloudy 36 2.1 26 -3.5 67 67 WSW 10 17 30.04 1017 10 16.0934 0 0
8:58 am 08:58 Cloudy 34 1.3 24 -4.3 67 67 W 9 15 30.06 1018 10 16.0934 0 0
9:58 am 09:58 Mostly Clear 34 1.3 24 -4.6 65 65 WNW 13 20 30.06 1018 10 16.0934 0 0
10:58 am 10:58 Clear 30 -1.3 22 -5.5 73 73 WNW 5 7 30.08 1019 10 16.0934 0 0
11:58 am 11:58 Clear 29 -1.9 22 -5.7 76 76 WSW 9 15 30.09 1019 10 16.0934 0 0
1:58 pm 13:58 Clear 27 -2.6 21 -5.9 78 78 W 7 11 30.13 1020 10 16.0934 0 0
2:58 pm 14:58 Sunny 28 -2.2 23 -4.9 82 82 WSW 8 13 30.13 1020 10 16.0934 0 0
3:58 pm 15:58 Mostly Cloudy 37 3 24 -4.2 60 60 WNW 7 11 30.13 1020 10 16.0934 0 0
4:58 pm 16:58 Sunny 42 5.3 26 -3.2 55 55 NW 7 11 30.12 1020 10 16.0934 0 0
5:58 pm 17:58 Sunny 46 7.8 23 -5.1 40 40 NW 20 31 30.09 1019 10 16.0934 0 0
6:58 pm 18:58 Sunny 48 9 21 -6 34 34 NNW 21 33 30.02 1017 10 16.0934 0 0
7:58 pm 19:58 Partly Cloudy 50 9.8 20 -6.6 31 31 NNW 21 33 29.99 1016 10 16.0934 0 0
8:58 pm 20:58 Mostly Sunny 50 10.1 18 -7.8 28 28 NW 22 35 29.97 1015 10 16.0934 0 0
9:58 pm 21:58 Sunny 50 10 18 -7.6 28 28 NW 23 37 29.98 1015 10 16.0934 0 0
10:58 pm 22:58 Sunny 48 9.1 19 -7.3 31 31 NW 13 20 30.01 1016 10 16.0934 0 0
11:58 pm 23:58 Sunny 39 4.1 21 -6.2 47 47 NNE 8 13 30.04 1017 10 16.0934 0 0

Powered by AerisWeather